999  
ASUS41 KCTP 241910  
RWRCTP  
 
REGIONAL WEATHER ROUNDUP  
NATIONAL WEATHER SERVICE STATE COLLEGE PA  
300 PM EDT SUN MAR 24 2019  
 
NOTE: "FAIR" INDICATES FEW OR NO CLOUDS BELOW 12,000 FEET WITH NO  
SIGNIFICANT WEATHER AND/OR S TO VISIBILITY
.  
 
* = STATION THAT DOES NOT REPORT PRECIPITATION /E.G. RAIN...SNOW...ETC/  
THUNDER OR FOG.
 
 
PAZ002>004-007>009-013>016-020>023-029>032-242000-  
WESTERN PENNSYLVANIA  
 
CITY SKY/WX TMP DP RH WIND PRES REMARKS
 
ERIE CLOUDY 49 22 34 W6 30.07F  
MEADVILLE CLOUDY 48 22 35 SW6 30.08F  
FRANKLIN* CLOUDY 49 22 34 SW10 30.10F  
NEW CASTLE CLOUDY 55 21 26 SW10 30.11F  
BEAVER COUNTY NOT AVBL  
BUTLER* FAIR 55 19 24 SW12 30.11F  
PITTSBURGH INT CLOUDY 55 14 19 SW6G17 30.11F  
PITTSBURGH FAIR 55 17 22 SW13 30.11F  
INDIANA* MOSUNNY 55 18 22 W12 30.14F  
LATROBE MOSUNNY 54 16 22 W14 30.13F  
WASHINGTON CO* PTSUNNY 54 16 22 W10 30.14F  

 
 
PAZ004>006-010>012-017>019-024>028-033>037-041-042-045-046-049>053-242000-  
CENTRAL PENNSYLVANIA  
 
CITY SKY/WX TMP DP RH WIND PRES REMARKS
 
BRADFORD CLOUDY 45 17 32 SW13G22 30.06F  
DUBOIS PTSUNNY 49 19 30 W15 30.08F  
CLEARFIELD FAIR 51 19 28 SW13 30.09F  
JOHNSTOWN FAIR 49 15 25 W7 30.09F  
ALTOONA PTSUNNY 51 19 28 SW5 30.10F  
STATE COLLEGE PTSUNNY 50 19 29 W15 30.11F  
WILLIAMSPORT FAIR 52 18 26 W9 30.08F  
SELINSGROVE FAIR 54 19 25 VRB5 30.11F  
FT INDIANTOWN PTSUNNY 59 21 23 SW12 30.09F  
CAPITAL CITY FAIR 61 17 18 NW7 30.11F  
HARRISBURG PTSUNNY 61 20 20 NW9 30.10F  
YORK FAIR 60 20 21 W5 30.11F  

 
 
PAZ038>040-043-044-047-048-054-055-060>062-067>071-242000-  
EASTERN PENNSYLVANIA  
 
CITY SKY/WX TMP DP RH WIND PRES REMARKS
 
SCRANTON FAIR 52 18 26 SW12 30.05F  
MOUNT POCONO FAIR 47 15 27 W13 30.04F  
ALLENTOWN FAIR 60 23 24 SW16G23 30.08F  
QUAKERTOWN* CLEAR 59 25 27 SW9G15 30.09F  
READING FAIR 60 24 25 MISG 30.15  
LANCASTER FAIR 60 23 24 W12 30.11F  
COATESVILLE FAIR 59 19 21 VRB7G13 30.12F  
POTTSTOWN FAIR 57 21 24 W7G18 30.12F  
BLUE BELL FAIR 57 23 26 SW12 30.11F  
DOYLESTOWN FAIR 58 20 22 W10G17 30.09F  
WILLOW GROVE NOT AVBL  
NORTH PHILA FAIR 62 18 18 W12G24 30.13F  
PHILADELPHIA PTSUNNY 60 18 19 SW13 30.13F  

 
 
 
CLICK HERE TO GO TO PREVIOUS BULLETINS.

The Nexlab PA Page Main Text Page